Weather History for KSPI - May, 2014

Change the Weather History Date:

Tuesday, May 13, 2014

  Actual Average Record
Temperature  
Mean Temperature 60 °F 63 °F  
Max Temperature 68 °F 74 °F 92 °F (1915)
Min Temperature 52 °F 52 °F 36 °F (1960)
Degree Days  
Heating Degree Days 5 4  
Month to date heating degree days 44 74  
Since 1 July heating degree days 6135 5419  
Cooling Degree Days 0 2  
Month to date cooling degree days 53 20  
Year to date cooling degree days 63 40  
Growing Degree Days 10 (Base 50)    
Moisture  
Dew Point 55 °F    
Average Humidity 85    
Maximum Humidity 93    
Minimum Humidity 77    
Precipitation  
Precipitation 0.18 in 0.14 in 2.21 in (2009)
Month to date precipitation 1.41 1.74  
Year to date precipitation 12.94 11.51  
Snow  
Snow 0.00 in 0.00 in 0.00 in ()
Month to date snowfall 0.0 0.0  
Since 1 July snowfall 45.7 20.9  
Snow Depth 0.00 in    
Sea Level Pressure  
Sea Level Pressure 30.02 in    
Wind  
Wind Speed 8 mph (WNW)    
Max Wind Speed 20 mph    
Max Gust Speed 23 mph    
Visibility 8 miles    
Events Rain    
T = Trace of Precipitation, MM = Missing Value Source: NWS Daily Summary

Daily Weather History Graph

Daily Weather History Graph

Search for Another Location

Airport or City:

Trip Planner

Search our weather history database for the weather conditions in past years. The results will help you decide how hot, cold, wet, or windy it might be!

Date:

Astronomy

May. 13, 2014 Rise Set
Actual Time 5:45 AM CDT 8:04 PM CDT
Civil Twilight 5:15 AM CDT 8:35 PM CDT
Nautical Twilight 4:37 AM CDT 9:13 PM CDT
Astronomical Twilight 3:56 AM CDT 9:54 PM CDT
Moon 7:06 PM CDT (5/13) 5:02 AM CDT (5/13)
Length of Visible Light 15h 20m
Length of Day
14h 19m
Waxing Gibbous, 99% of the Moon is Illuminated
May 13
Waxing Gibbous
May 14
Full
May 21
Last Quarter
May 28
New
Jun 5
First Quarter

Hourly Weather History & Observations

Time (CDT) Temp. Dew Point Humidity Pressure Visibility Wind Dir Wind Speed Gust Speed Precip Events Conditions
12:52 AM 66.9 °F 64.0 °F 90% 29.89 in 7.0 mi South 6.9 mph - 0.02 in Rain Rain
1:52 AM 66.9 °F 64.0 °F 90% 29.88 in 10.0 mi SSE 10.4 mph - 0.08 in Rain Light Rain
2:52 AM 68.0 °F 64.0 °F 87% 29.91 in 10.0 mi SSW 9.2 mph - 0.00 in Rain Light Rain
3:33 AM 68.0 °F 64.0 °F 87% 29.92 in 7.0 mi SSW 8.1 mph - 0.02 in Rain Light Rain
3:48 AM 68.0 °F 64.4 °F 88% 29.91 in 8.0 mi SSW 3.5 mph - 0.03 in Rain Light Rain
3:52 AM 68.0 °F 64.4 °F 88% 29.90 in 8.0 mi SSW 3.5 mph - N/A Rain Light Rain
4:16 AM 66.9 °F 64.0 °F 90% 29.90 in 10.0 mi SSW 4.6 mph - 0.01 in Rain Light Rain
4:45 AM 68.0 °F 64.9 °F 90% 29.87 in 10.0 mi Calm Calm - 0.01 in Rain Light Rain
4:52 AM 68.0 °F 64.0 °F 87% 29.85 in 10.0 mi Calm Calm - 0.02 in Rain Light Rain
5:05 AM 66.9 °F 64.9 °F 93% 29.88 in 10.0 mi Calm Calm - 0.00 in Rain Light Rain
5:37 AM 66.0 °F 63.0 °F 90% 29.92 in 7.0 mi WNW 16.1 mph 23.0 mph 0.00 in Rain Light Rain
5:50 AM 62.6 °F 60.8 °F 94% 29.93 in 4.0 mi NW 13.8 mph - 0.03 in Rain Light Rain
5:52 AM 63.0 °F 60.1 °F 90% 29.91 in 3.0 mi NW 12.7 mph - 0.03 in Rain Light Rain
6:06 AM 62.1 °F 59.0 °F 90% 29.95 in 3.0 mi NW 12.7 mph - 0.01 in Rain Light Rain
6:52 AM 59.0 °F 55.4 °F 88% 29.98 in 10.0 mi NW 16.1 mph - N/A   Overcast
7:13 AM 59.0 °F 55.0 °F 87% 29.99 in 10.0 mi NW 11.5 mph - N/A   Overcast
7:52 AM 57.2 °F 53.6 °F 88% 30.00 in 10.0 mi WNW 10.4 mph - N/A   Overcast
8:38 AM 57.0 °F 52.0 °F 83% 30.02 in 10.0 mi NW 10.4 mph - N/A   Overcast
8:47 AM 57.2 °F 53.6 °F 88% 30.02 in 2.5 mi WNW 9.2 mph - 0.00 in Rain Light Rain
8:52 AM 55.9 °F 53.1 °F 90% 30.01 in 2.0 mi WNW 11.5 mph - 0.00 in Rain Light Rain
9:12 AM 55.9 °F 52.0 °F 87% 30.03 in 2.0 mi WNW 8.1 mph - 0.00 in   Overcast
9:56 AM 57.2 °F 51.8 °F 82% 30.04 in 4.0 mi WNW 12.7 mph - N/A Rain Light Rain
10:52 AM 57.2 °F 53.6 °F 88% 30.06 in 1.5 mi West 9.2 mph - N/A Rain Light Rain
11:03 AM 57.0 °F 53.1 °F 87% 30.06 in 9.0 mi West 9.2 mph - 0.00 in   Overcast
11:44 AM 57.9 °F 52.0 °F 81% 30.08 in 10.0 mi NW 9.2 mph - 0.00 in   Overcast
11:52 AM 57.9 °F 52.0 °F 81% 30.07 in 10.0 mi West 12.7 mph - 0.00 in   Overcast
12:16 PM 57.0 °F 51.1 °F 81% 30.08 in 10.0 mi WNW 12.7 mph - N/A   Overcast
12:52 PM 57.0 °F 51.1 °F 81% 30.07 in 10.0 mi WNW 10.4 mph - 0.00 in Rain Light Rain
1:52 PM 55.9 °F 50.0 °F 80% 30.08 in 10.0 mi WNW 5.8 mph - 0.00 in   Overcast
2:52 PM 55.9 °F 50.0 °F 80% 30.11 in 10.0 mi WNW 9.2 mph - 0.01 in Rain Light Rain
3:52 PM 55.0 °F 48.9 °F 80% 30.11 in 10.0 mi NNW 8.1 mph - 0.00 in Rain Light Rain
4:52 PM 55.0 °F 48.9 °F 80% 30.13 in 10.0 mi NW 9.2 mph - 0.00 in Rain Light Rain
5:52 PM 55.0 °F 48.0 °F 77% 30.14 in 10.0 mi NW 10.4 mph - 0.00 in   Overcast
6:52 PM 54.0 °F 48.0 °F 80% 30.13 in 10.0 mi NW 11.5 mph - N/A   Overcast
7:52 PM 54.0 °F 46.0 °F 75% 30.16 in 10.0 mi NW 6.9 mph - N/A   Overcast
8:24 PM 54.0 °F 46.0 °F 75% 30.16 in 10.0 mi NNW 5.8 mph - N/A   Overcast
8:52 PM 54.0 °F 46.0 °F 75% 30.18 in 10.0 mi NNW 3.5 mph - N/A   Scattered Clouds
9:52 PM 53.1 °F 46.9 °F 80% 30.19 in 10.0 mi Calm Calm - 0.00 in   Mostly Cloudy
10:52 PM 53.1 °F 48.0 °F 83% 30.22 in 10.0 mi West 5.8 mph - N/A   Mostly Cloudy
11:52 PM 53.1 °F 46.9 °F 80% 30.21 in 10.0 mi Calm Calm - N/A   Clear